Flag for Canada Weather past 2 weeks in London, Ontario, Canada

Now
57 °F

Sunny.


Feels Like: 56 °F
Forecast: 47 / 71 °F
Wind: 6 mph from South

Location: London Weather Station

Current Time: Sep 23, 2014 at 8:56:23 PM

Latest Report: Sep 23, 2014 at 8:00 PM


Visibility: 15 mi

Pressure: 30.37 "Hg

Humidity: 82%

Dew point: 52 °F

Location of LondonLocation

Historic Weather in London — Graph

°F

London temperature yesterday

Maximum temperature yesterday: 55 °F (at 1:00 PM)
Minimum temperature yesterday: 45 °F (at 11:00 PM)
Average temperature yesterday: 50 °F

Past Weeks' High & Low Weather Summary

 TemperatureHumidityPressure
High73 °F (Sep 11, 12:00 AM)100% (Sep 10, 1:00 AM)30.37 "Hg (Sep 10, 1:00 AM)
Low39 °F (Sep 19, 6:00 AM)49% (Sep 17, 3:00 PM)29.57 "Hg (Sep 21, 7:53 AM)
Average56 °F83%30.07 "Hg
* Reported Sep 8 7:00 PM — Sep 23 7:00 PM, London, Weather by CustomWeather, © 2014

Note: Actual official high and low records may vary slightly from our data, if they occured in-between our weather recording intervals... More about our weather records

Advertising

London weather history for previous 24 hours

 ConditionsComfort  
Time TempWeatherWind HumidityBarometerVisibility
7:00 PM
Sep 23
63 °FPassing clouds.9 mph68%30.35 "Hg15 mi
6:00 PM68 °FPassing clouds.3 mph53%30.34 "Hg15 mi
5:00 PM68 °FPassing clouds.6 mph56%30.34 "Hg15 mi
4:00 PM68 °FPassing clouds.3 mph56%30.34 "Hg15 mi
3:00 PM68 °FPassing clouds.6 mph56%30.34 "Hg15 mi
2:00 PM68 °FPassing clouds.10 mph56%30.34 "Hg15 mi
1:00 PM66 °FPassing clouds.8 mph56%30.34 "Hg15 mi
12:00 PM64 °FSunny.8 mph60%30.34 "Hg15 mi
11:00 AM61 °FScattered clouds.8 mph63%30.34 "Hg15 mi
10:00 AM57 °FScattered clouds.8 mph77%30.34 "Hg15 mi
9:00 AM52 °FScattered clouds.5 mph88%30.34 "Hg15 mi
8:00 AM45 °FPassing clouds.3 mph100%30.32 "Hg15 mi
7:00 AM45 °FPassing clouds.3 mph93%30.31 "Hg15 mi
6:00 AM45 °FClear.6 mph93%30.29 "Hg15 mi
5:00 AM46 °FClear.5 mph87%30.29 "Hg15 mi
4:00 AM45 °FClear.6 mph87%30.28 "Hg15 mi
3:00 AM45 °FClear.5 mph87%30.28 "Hg15 mi
2:00 AM43 °FClear.No wind93%30.27 "Hg15 mi
1:00 AM45 °FClear.No wind93%30.25 "Hg15 mi
12:00 AM45 °FClear.2 mph93%30.25 "Hg15 mi
11:00 PM
Sep 22
45 °FClear.5 mph87%30.25 "Hg15 mi
10:00 PM46 °FClear.2 mph87%30.24 "Hg15 mi
9:00 PM46 °FClear.3 mph87%30.23 "Hg15 mi
8:00 PM48 °FSunny.2 mph82%30.21 "Hg15 mi
Weather by CustomWeather, © 2014

See weather overviewHow to use our weather pages